Hourly Data Report for September 22, 2017

All times are specified in Local Standard Time (LST). Add 1 hour to adjust for Daylight Saving Time where and when it is observed.

WOODSTOCK NEWBRIDGE
NEW BRUNSWICK

46°09'08.000" N
67°32'34.000" W
154.00 m
8105603
71606
EWD

Download Data

Hourly Data (September 2017)
Hourly Data Report for September 22, 2017
Temp Definition
°C
Dew Point Temp Definition
°C
Rel Hum Definition
%
Wind Dir Definition
10's deg

Wind Spd Definition
km/h
Visibility Definition
km
Stn Press Definition
kPa
Hmdx Definition


Wind Chill Definition


Weather Definition


TIME
00:00 8.0 5.1 82 0 1   100.54     LegendNANA
01:00 6.5 4.5 87   0   100.59     LegendNANA
02:00 5.0 3.5 90   0   100.56     LegendNANA
03:00 4.4 3.4 93   0   100.51     LegendNANA
04:00 3.2 2.2 93 0 1   100.50     LegendNANA
05:00 2.6 1.7 94 10 2   100.53     LegendNANA
06:00 1.8 1.1 95   0   100.54     LegendNANA
07:00 3.1 2.6 96   0   100.58     LegendNANA
08:00 9.0 6.2 83 0 1   100.60     LegendNANA
09:00 11.8 6.6 71 0 1   100.60     LegendNANA
10:00 14.4 7.5 63 35 4   100.57     LegendNANA
11:00 17.7 6.6 48 10 2   100.50     LegendNANA
12:00 18.8 5.4 41 30 3   100.43     LegendNANA
13:00 21.4 5.3 35 28 8   100.38     LegendNANA
14:00 22.5 5.9 34 24 8   100.33     LegendNANA
15:00 23.2 5.5 32 27 7   100.27     LegendNANA
16:00 23.2 4.4 30 32 4   100.22     LegendNANA
17:00 23.2 5.1 31 31 3   100.18     LegendNANA
18:00 18.9 7.8 48 0 1   100.15     LegendNANA
19:00 13.4 7.4 67   0   100.14     LegendNANA
20:00 11.2 7.5 78   0   100.14     LegendNANA
21:00 10.0 7.2 83   0   100.13     LegendNANA
22:00 8.3 6.5 88   0   100.12     LegendNANA
23:00 7.2 5.9 91   0   100.13     LegendNANA

Notes on Data Quality.

Legend

  • E = Estimated
  • M = Missing
  • NA = Not Available
  • ‡ = Partner data that is not subject to review by the National Climate Archives
Date modified: